{"data":{"norad_id":67806,"intl_designator":"2026-032K","name":"STARLINK-36389","alt_names":[],"object_type":"PAYLOAD","status":"ACTIVE","operator":null,"country":"US","launch_date":"2026-02-15","launch_site_code":"AFWTR","launch_vehicle":null,"mission":null,"orbit_class":"UNKNOWN","rcs_meters":null,"size_class":null,"mass_kg":null,"dimensions":null,"purposes":["comms"],"wikipedia_slug":null,"has_3d_model":false,"image_url":null,"decayed_at":null,"tle_current":{"epoch":"2026-05-25T01:28:25.345344Z","epoch_age_seconds":80303,"freshness":"FRESH","line1":"1 67806U 26032K   26145.06140446  .00016080  00000+0  49924-3 0  9998","line2":"2 67806  97.2857 333.1370 0001728  94.0261 266.1179 15.33450260 16667","mean_motion":15.3345026,"eccentricity":0.0001728,"inclination_deg":97.2857,"raan_deg":333.137,"arg_perigee_deg":94.0261,"mean_anomaly_deg":266.1179,"bstar":0.00049924,"rev_number":1666,"period_min":93.905882542287,"perigee_km":464.34493923376,"apogee_km":466.71010969342,"semimajor_km":6843.6645244636,"source":"CELESTRAK","updated_at":"2026-05-25T13:38:21.693733Z"}}}